[[{"header":{"parameterUnit":"m.s-1","parameterCategory":2,"la1":30.2991,"la2":30.254,"lo1":-89.0895,"lo2":-89.0444,"dy":0.0017,"dx":0.0017,"nx":28,"ny":28,"refTime":"2024-06-10T03:00:00:Z","depth":"0","parameterNumber":2,"parameterNumberName":"U-component_of_CURRENTS"},"data":[0,0,0,0,0,0,0,0,0,0,0,0,0,0,0,0,0,0,0,0,0,0,0,0,0,0,0,0,0,0,0,0,0,0,0,0,0,0,0,0,0,0,0,0,0,0,0,0,0,0,0,0,0,0,0,0,0,0,0.3536,0.3536,0,0.3542,0.3542,0.3542,0.3518,0.3517,0.3517,0.3516,0.3499,0.3499,0.3499,0,0,0,0,0,0,0,0,0,0,0,0,0,0.3516,0.3516,0.3536,0.3536,0.3536,0.3543,0.3542,0.3542,0.3518,0.3517,0.3517,0.3516,0.3499,0.3499,0.3499,0,0,0,0,0,0,0,0,0,0,0,0,0,0.3521,0.3516,0.3535,0.3527,0.3527,0.3543,0.3542,0.3542,0.3518,0.3517,0.3516,0.3516,0.3499,0.3499,0.3499,0.3513,0,0,0.3499,0.3499,0,0,0,0,0,0,0,0,0.3521,0.3521,0.3528,0.3528,0.3527,0.3531,0.3529,0.3532,0.3518,0.3518,0.3516,0.3515,0.351,0.3509,0.3508,0.3512,0.3512,0.3499,0.3499,0.3499,0.3499,0,0,0,0,0,0,0,0.352,0.3521,0.3535,0.3528,0.3528,0.3528,0.3528,0.353,0.3515,0.3518,0.3517,0.3523,0.3509,0.3508,0.3508,0.3511,0.3499,0.3499,0.3499,0.3499,0.3578,0.358,0,0,0,0,0,0,0.3525,0.3521,0.3535,0.3536,0.3525,0.3529,0.3528,0.3528,0.3516,0.3514,0.3523,0.3522,0.3509,0.3508,0.3507,0.3561,0.3499,0.3499,0.3499,0.3576,0.3579,0.3581,0,0,0,0,0,0,0.3525,0.3526,0.3535,0.3531,0.3532,0.353,0.353,0.3529,0.3532,0.3521,0.3518,0.3529,0.3508,0.3507,0.3519,0.3558,0.3499,0.3499,0.3574,0.3577,0.358,0.3643,0,0,0,0,0,0,0.3524,0.3526,0.353,0.3531,0.3533,0.3554,0.3531,0.3529,0.3538,0.3536,0.3525,0.3522,0.3508,0.3519,0.3519,0.3557,0.3499,0.3571,0.3575,0.3579,0.3639,0.3648,0.3657,0,0,0,0,0,0.3523,0.3531,0.353,0.3532,0.3537,0.3555,0.3556,0.355,0.3539,0.3548,0.3541,0.3523,0.3545,0.352,0.3519,0.3559,0.3569,0.3574,0.3579,0.3635,0.3646,0.3656,0,0,0,0,0,0,0.3522,0.353,0.3528,0.3537,0.3551,0.3552,0.3561,0.3558,0.3559,0.3557,0.3538,0.3536,0.3575,0.3555,0.3529,0.3597,0.3559,0.3564,0.3602,0.3613,0.3622,0.3677,0.3499,0,0,0,0,0,0.3526,0.3533,0.3544,0.3552,0.3561,0.3563,0.357,0.357,0.3572,0.3571,0.3566,0.357,0.3595,0.3591,0.361,0.3628,0.3671,0.3658,0.3667,0.3675,0.3722,0.3846,0.3871,0.3597,0.3597,0.3596,0,0,0.3526,0.3534,0.3537,0.3554,0.3561,0.3584,0.3565,0.3583,0.3603,0.3571,0.3594,0.3608,0.3613,0.3648,0.3663,0.363,0.3765,0.3681,0.3687,0.3731,0.3854,0.3881,0.3905,0.36,0.3599,0.3599,0,0,0.3536,0.3541,0.3553,0.357,0.3593,0.3602,0.3611,0.3623,0.363,0.3652,0.3655,0.3699,0.3695,0.3731,0.3742,0.3813,0.3824,0.3806,0.3877,0.3995,0.402,0.4042,0.4085,0.411,0.3792,0.3792,0.3792,0,0.3537,0.3553,0.3561,0.3583,0.3604,0.3614,0.364,0.3655,0.367,0.3706,0.3667,0.3765,0.375,0.3846,0.3862,0.3839,0.3884,0.3827,0.401,0.4033,0.4055,0.4094,0.4122,0.3795,0.3795,0.3795,0.3794,0,0.3557,0.3575,0.3588,0.362,0.3645,0.3671,0.37,0.3734,0.3743,0.3773,0.3871,0.3876,0.3941,0.3938,0.391,0.4061,0.4034,0.4021,0.3984,0.4087,0.412,0.4147,0.3801,0.3799,0.3798,0.3797,0,0,0.3535,0.3591,0.3593,0.3623,0.3669,0.3694,0.3751,0.3823,0.3896,0.3921,0.4029,0.4069,0.4103,0.4123,0.4118,0.4203,0.4351,0.4172,0.4176,0.4217,0.4578,0.4377,0.4387,0.4376,0.4383,0.4388,0.4521,0,0.3546,0.359,0.3621,0.3678,0.3707,0.376,0.3821,0.3895,0.3957,0.4065,0.4125,0.4221,0.4161,0.4209,0.429,0.4364,0.4437,0.4314,0.4472,0.4476,0.429,0.4418,0.4215,0.4303,0.4548,0.4553,0.4556,0,0.3546,0.3582,0.3629,0.3726,0.3747,0.3794,0.3928,0.3989,0.4147,0.4204,0.4328,0.4382,0.4521,0.445,0.4641,0.4568,0.4588,0.4622,0.4628,0.4454,0.433,0.4251,0.4344,0.4241,0.4599,0.4595,0.4592,0,0.3512,0.3589,0.3629,0.3654,0.3762,0.3819,0.3894,0.404,0.4129,0.4322,0.4423,0.4581,0.4672,0.4774,0.4797,0.4755,0.4991,0.4934,0.4772,0.4754,0.4621,0.4581,0.4644,0.5091,0.5091,0.509,0.509,0,0.3498,0.3535,0.3622,0.3645,0.3732,0.3818,0.3947,0.4051,0.4237,0.4365,0.45,0.4624,0.4769,0.4885,0.4897,0.4911,0.5069,0.4833,0.4808,0.4624,0.4585,0.4516,0.4464,0.5095,0.5094,0.5093,0.5092,0,0.344,0.3493,0.3549,0.3666,0.371,0.3773,0.3954,0.4064,0.4242,0.4423,0.4495,0.4712,0.4847,0.4937,0.5095,0.501,0.491,0.5011,0.4737,0.4675,0.4362,0.4319,0.4227,0.4117,0.4875,0.4871,0.4868,0,0.3411,0.343,0.3538,0.3583,0.3636,0.375,0.3841,0.4034,0.4152,0.4445,0.4528,0.4734,0.4812,0.4949,0.4885,0.4883,0.4786,0.4663,0.4538,0.4355,0.4295,0.4143,0.4049,0.4381,0.4374,0.4368,0.4364,0,0.3361,0.3395,0.3443,0.3533,0.3619,0.3722,0.3866,0.3953,0.4181,0.432,0.4504,0.4603,0.4705,0.4602,0.4575,0.4548,0.4421,0.4539,0.4483,0.403,0.3751,0.3625,0.4236,0.4314,0.4319,0.4322,0.4325,0.4327,0.3317,0.3335,0.3404,0.3478,0.3575,0.3674,0.37,0.3846,0.3977,0.41,0.4315,0.4333,0.4344,0.4261,0.4215,0.3997,0.4022,0.3861,0.386,0.3752,0.3532,0.3972,0.3922,0.3925,0.3927,0.3929,0.3931,0,0.3246,0.3285,0.3358,0.3428,0.3476,0.3573,0.3692,0.3671,0.3702,0.3824,0.3898,0.387,0.374,0.3733,0.3567,0.3386,0.3264,0.3291,0.3108,0.3079,0.3611,0.3473,0.3161,0.3162,0.3162,0.3162,0.3162,0.3162,0.3217,0.3233,0.3266,0.3301,0.335,0.3344,0.3362,0.3331,0.3362,0.3283,0.3225,0.3265,0.3388,0.3284,0.3091,0.3011,0.2831,0.2615,0.2676,0.3117,0.3172,0.3225,0.3087,0.27,0.2699,0.2023,0.2017,0.2014]},{"header":{"parameterUnit":"m.s-1","parameterCategory":2,"la1":30.2991,"la2":30.254,"lo1":-89.0895,"lo2":-89.0444,"dy":0.0017,"dx":0.0017,"nx":28,"ny":28,"refTime":"2024-06-10T03:00:00:Z","depth":"0","parameterNumber":3,"parameterNumberName":"V-component_of_CURRENTS"},"data":[0,0,0,0,0,0,0,0,0,0,0,0,0,0,0,0,0,0,0,0,0,0,0,0,0,0,0,0,0,0,0,0,0,0,0,0,0,0,0,0,0,0,0,0,0,0,0,0,0,0,0,0,0,0,0,0,0,0,0.0295,0.0295,0,0.0252,0.0251,0.0251,0.0218,0.0218,0.0218,0.0217,0.0161,0.0159,0.0158,0,0,0,0,0,0,0,0,0,0,0,0,0,0.0306,0.0306,0.0295,0.0295,0.0294,0.0252,0.0251,0.0251,0.0218,0.0218,0.0217,0.0217,0.0161,0.0159,0.0158,0,0,0,0,0,0,0,0,0,0,0,0,0,0.0285,0.0306,0.0295,0.0274,0.0272,0.0252,0.0251,0.025,0.0218,0.0218,0.0217,0.0217,0.0162,0.016,0.0158,0.0151,0,0,0.0151,0.0151,0,0,0,0,0,0,0,0,0.0286,0.0284,0.0278,0.0275,0.0273,0.0241,0.0234,0.0217,0.0218,0.0237,0.0217,0.0217,0.0187,0.0183,0.0174,0.0148,0.0145,0.0151,0.015,0.0149,0.0149,0,0,0,0,0,0,0,0.0288,0.0286,0.0277,0.0277,0.0274,0.0252,0.0249,0.0231,0.0213,0.0235,0.0233,0.0231,0.0186,0.0176,0.0172,0.0145,0.0151,0.0149,0.0148,0.0147,0.0113,0.0114,0,0,0,0,0,0,0.0298,0.0287,0.0278,0.0276,0.028,0.0252,0.0249,0.0251,0.0213,0.0208,0.0231,0.0229,0.018,0.0175,0.017,0.0184,0.0149,0.0147,0.0146,0.0113,0.0113,0.0114,0,0,0,0,0,0,0.0299,0.0298,0.028,0.0281,0.0277,0.0253,0.0255,0.025,0.0244,0.021,0.0204,0.023,0.0179,0.0173,0.0163,0.018,0.0146,0.0145,0.0113,0.0113,0.0114,0.0196,0,0,0,0,0,0,0.0299,0.0299,0.0304,0.0282,0.0278,0.0278,0.0255,0.0249,0.0243,0.024,0.0208,0.0202,0.0178,0.0167,0.0161,0.0177,0.0143,0.0112,0.0113,0.0114,0.0193,0.0199,0.0204,0,0,0,0,0,0.03,0.0312,0.0305,0.0304,0.0286,0.0278,0.0274,0.0254,0.0243,0.0246,0.0225,0.0203,0.0166,0.0166,0.0159,0.0175,0.0112,0.0113,0.0113,0.019,0.0198,0.0204,0,0,0,0,0,0,0.032,0.031,0.0301,0.0309,0.0298,0.0274,0.0275,0.026,0.0245,0.0244,0.021,0.0203,0.0199,0.0173,0.0173,0.0164,0.0134,0.0134,0.0194,0.0201,0.0207,0.0235,0.0141,0,0,0,0,0,0.0328,0.0336,0.0318,0.0326,0.0323,0.03,0.0294,0.0282,0.0265,0.0258,0.0236,0.0212,0.0196,0.0189,0.0167,0.0166,0.0153,0.0169,0.0175,0.0181,0.0197,0.0203,0.0212,0.0116,0.0116,0.0116,0,0,0.0337,0.0334,0.0337,0.0331,0.0321,0.0329,0.0296,0.0295,0.0304,0.0255,0.0261,0.0232,0.0199,0.0198,0.0194,0.0181,0.0197,0.0182,0.0187,0.0201,0.0205,0.0214,0.0223,0.0117,0.0116,0.0116,0,0,0.0366,0.0359,0.0375,0.0372,0.0364,0.0353,0.0356,0.0337,0.033,0.033,0.0298,0.0285,0.0257,0.0242,0.023,0.0254,0.0226,0.024,0.0297,0.0302,0.0311,0.0318,0.0303,0.0308,0.0245,0.0246,0.0246,0,0.0378,0.0399,0.0379,0.0395,0.0403,0.0369,0.0393,0.0381,0.0361,0.037,0.0343,0.032,0.0282,0.0295,0.0296,0.027,0.0263,0.0276,0.0313,0.032,0.0326,0.0309,0.0314,0.025,0.0249,0.0249,0.0248,0,0.0419,0.0435,0.0447,0.046,0.0464,0.0478,0.0464,0.0467,0.0454,0.0445,0.0452,0.0406,0.0399,0.0375,0.034,0.0366,0.0342,0.032,0.0302,0.0341,0.0319,0.0323,0.0255,0.0254,0.0253,0.0252,0,0,0.0456,0.0473,0.048,0.0504,0.0503,0.0517,0.0534,0.0549,0.0584,0.0549,0.0595,0.054,0.0521,0.0504,0.0461,0.0453,0.047,0.041,0.0408,0.0408,0.0475,0.0427,0.0426,0.0462,0.0464,0.0465,0.0438,0,0.0499,0.0549,0.0545,0.06,0.0627,0.0613,0.0641,0.0649,0.065,0.0684,0.064,0.066,0.0569,0.058,0.0555,0.0508,0.0486,0.0479,0.0425,0.0424,0.0389,0.0432,0.0445,0.042,0.0442,0.0442,0.0443,0,0.0549,0.0578,0.0639,0.0688,0.0701,0.0731,0.0789,0.0809,0.0832,0.0837,0.084,0.0811,0.08,0.0719,0.0653,0.0657,0.057,0.0514,0.0511,0.0446,0.0385,0.0385,0.0426,0.0319,0.0448,0.0448,0.0447,0,0.0603,0.065,0.0709,0.0723,0.0765,0.0804,0.0832,0.0864,0.0918,0.0952,0.1011,0.0963,0.0988,0.0878,0.0746,0.0712,0.0672,0.0611,0.0478,0.0472,0.0463,0.0454,0.0409,0.0555,0.0555,0.0555,0.0555,0,0.0658,0.0706,0.0745,0.078,0.0866,0.0874,0.0977,0.0993,0.1066,0.1177,0.1107,0.1194,0.1035,0.0987,0.0819,0.0676,0.0727,0.0503,0.0474,0.0487,0.0482,0.0369,0.0271,0.0554,0.0554,0.0555,0.0555,0,0.071,0.073,0.0805,0.0868,0.0895,0.0962,0.1075,0.1163,0.1211,0.1362,0.1393,0.1396,0.1334,0.1143,0.0986,0.0803,0.0567,0.0569,0.0582,0.0554,0.0303,0.0208,0.0095,0.005,0.0421,0.042,0.0419,0,0.0741,0.0785,0.0873,0.0933,0.0969,0.107,0.1158,0.1227,0.1346,0.1505,0.1607,0.1592,0.1611,0.1339,0.1015,0.0715,0.0558,0.051,0.043,0.0308,0.0182,0.0118,0.0085,0.0442,0.0442,0.0441,0.0441,0,0.0802,0.0836,0.0901,0.1021,0.1123,0.1247,0.1387,0.1503,0.1636,0.178,0.1962,0.1988,0.1728,0.1451,0.1014,0.0786,0.0427,0.0485,0.0377,0.0212,0.0124,0.0063,0.0422,0.0436,0.0436,0.0437,0.0437,0.0437,0.0855,0.0911,0.1004,0.1123,0.1248,0.1432,0.1565,0.1746,0.196,0.2189,0.22,0.226,0.1844,0.1255,0.0951,0.0405,0.0374,0.0229,0.0129,0.008,0.0024,0.0356,0.0322,0.0321,0.0321,0.0321,0.0321,0,0.0914,0.0986,0.1101,0.126,0.1422,0.1475,0.1727,0.1893,0.2172,0.2335,0.2468,0.2284,0.1766,0.1232,0.0483,0.013,0.0019,-0.0062,-0.0129,-0.0142,0.0184,0.0174,0.0087,0.0087,0.0087,0.0088,0.0088,0.0088,0.0948,0.1062,0.1123,0.1382,0.1512,0.175,0.1907,0.2154,0.2322,0.2521,0.2537,0.2509,0.2111,0.0823,0.0007,-0.0179,-0.0359,-0.0446,-0.0534,-0.03,-0.0279,-0.0259,-0.0286,-0.0468,-0.0469,-0.0777,-0.078,-0.0783]}],[{"header":{"parameterUnit":"m.s-1","parameterCategory":2,"la1":30.2991,"la2":30.254,"lo1":-89.0895,"lo2":-89.0444,"dy":0.0017,"dx":0.0017,"nx":28,"ny":28,"refTime":"2024-06-10T03:00:00:Z","depth":"2","parameterNumber":2,"parameterNumberName":"U-component_of_CURRENTS"},"data":[0,0,0,0,0,0,0,0,0,0,0,0,0,0,0,0,0,0,0,0,0,0,0,0,0,0,0,0,0,0,0,0,0,0,0,0,0,0,0,0,0,0,0,0,0,0,0,0,0,0,0,0,0,0,0,0,0,0,0.3021,0.3021,0,0.3024,0.3024,0.3023,0.3013,0.3013,0.3013,0.3013,0.3011,0.3011,0.3011,0,0,0,0,0,0,0,0,0,0,0,0,0,0.3007,0.3007,0.3021,0.3021,0.3021,0.3024,0.3024,0.3023,0.3013,0.3013,0.3013,0.3013,0.3011,0.3011,0.3011,0,0,0,0,0,0,0,0,0,0,0,0,0,0.3009,0.3007,0.302,0.3018,0.3018,0.3024,0.3024,0.3023,0.3013,0.3013,0.3013,0.3013,0.3011,0.3011,0.3011,0.3012,0,0,0.3011,0.3011,0,0,0,0,0,0,0,0,0.3009,0.301,0.3018,0.3019,0.3019,0.302,0.3018,0.302,0.3013,0.3012,0.3013,0.3013,0.3015,0.3015,0.3012,0.3012,0.3012,0.3011,0.3011,0.3011,0.3011,0,0,0,0,0,0,0,0.3009,0.3009,0.3019,0.3019,0.3019,0.3018,0.3018,0.3018,0.3012,0.3012,0.3012,0.3017,0.3015,0.3012,0.3012,0.3012,0.3011,0.3011,0.3011,0.3011,0.3075,0.3076,0,0,0,0,0,0,0.3014,0.3009,0.3019,0.3019,0.3017,0.3019,0.3018,0.3018,0.3012,0.3012,0.3017,0.3017,0.3012,0.3012,0.3012,0.3067,0.3011,0.3011,0.3011,0.3073,0.3075,0.3077,0,0,0,0,0,0,0.3014,0.3015,0.3019,0.3017,0.3018,0.3019,0.3018,0.3018,0.3028,0.3016,0.3016,0.303,0.3012,0.3012,0.3029,0.3065,0.3011,0.3011,0.3071,0.3074,0.3076,0.3144,0,0,0,0,0,0,0.3013,0.3015,0.3021,0.3017,0.3018,0.3035,0.3019,0.3018,0.3032,0.3031,0.3027,0.3025,0.3012,0.3029,0.3029,0.3064,0.3011,0.3069,0.3072,0.3075,0.314,0.3149,0.3156,0,0,0,0,0,0.3013,0.302,0.3021,0.3023,0.3025,0.3036,0.3037,0.3035,0.3033,0.3042,0.3042,0.3026,0.3049,0.303,0.3029,0.3066,0.3067,0.3071,0.3075,0.3136,0.3147,0.3156,0,0,0,0,0,0,0.3016,0.302,0.3021,0.3029,0.3039,0.3036,0.3046,0.3046,0.3053,0.3056,0.3041,0.304,0.3082,0.3059,0.3038,0.3095,0.3059,0.3063,0.3106,0.3116,0.3124,0.3153,0.3011,0,0,0,0,0,0.3021,0.3029,0.3034,0.3043,0.3051,0.3052,0.3059,0.3061,0.3065,0.3067,0.3067,0.3072,0.3095,0.3092,0.311,0.3123,0.3147,0.315,0.3158,0.3165,0.3189,0.3271,0.329,0.309,0.309,0.309,0,0,0.3024,0.3029,0.3033,0.3045,0.3051,0.3068,0.3055,0.3074,0.3092,0.3067,0.3095,0.3111,0.3112,0.3144,0.3158,0.3126,0.3231,0.317,0.3176,0.3197,0.3278,0.3297,0.3315,0.3092,0.3092,0.3091,0,0,0.3033,0.3041,0.3051,0.3064,0.3084,0.309,0.31,0.3111,0.3123,0.3148,0.3153,0.3194,0.3194,0.3219,0.3226,0.3289,0.3289,0.3287,0.3332,0.3411,0.3428,0.3444,0.3483,0.3502,0.327,0.3271,0.3271,0,0.3038,0.3048,0.3057,0.3074,0.309,0.3103,0.3123,0.3139,0.3156,0.3184,0.3166,0.3241,0.3239,0.3305,0.3325,0.3312,0.3341,0.329,0.3424,0.344,0.3455,0.3491,0.3511,0.3274,0.3274,0.3273,0.3273,0,0.3052,0.3068,0.3078,0.3103,0.3125,0.3145,0.3172,0.3202,0.3219,0.3244,0.3323,0.3335,0.3385,0.3387,0.337,0.3477,0.3457,0.3442,0.34,0.348,0.3511,0.3531,0.328,0.3278,0.3277,0.3276,0,0,0.3036,0.3079,0.3082,0.3102,0.3143,0.3159,0.3209,0.3262,0.3318,0.3347,0.3427,0.347,0.3504,0.3518,0.3519,0.3567,0.3686,0.3545,0.3547,0.3586,0.3843,0.3711,0.3719,0.3696,0.37,0.3703,0.3816,0,0.3043,0.3072,0.31,0.314,0.3157,0.3202,0.3249,0.3306,0.3364,0.3449,0.3497,0.3582,0.3544,0.3591,0.3639,0.3694,0.3744,0.3656,0.3758,0.3761,0.3637,0.374,0.3421,0.3485,0.3835,0.3838,0.384,0,0.3039,0.3061,0.3096,0.316,0.3175,0.3213,0.3311,0.3363,0.3487,0.3541,0.364,0.3694,0.3798,0.3753,0.3884,0.383,0.3854,0.3871,0.3875,0.3748,0.3667,0.3466,0.3507,0.3873,0.387,0.3868,0.3866,0,0.3002,0.3058,0.3085,0.3105,0.3181,0.3224,0.3281,0.3395,0.3465,0.3633,0.3715,0.3834,0.3913,0.398,0.4012,0.3974,0.4137,0.4089,0.3988,0.3977,0.3725,0.3684,0.4198,0.4198,0.4197,0.4197,0.4197,0,0.2984,0.3007,0.3075,0.309,0.3145,0.3217,0.3312,0.3395,0.3543,0.3646,0.3776,0.3871,0.398,0.407,0.4082,0.4095,0.4202,0.4031,0.4017,0.3734,0.3695,0.4042,0.4023,0.4201,0.42,0.4199,0.4199,0,0.293,0.2973,0.301,0.3094,0.3125,0.3171,0.3307,0.3381,0.3542,0.3691,0.3758,0.3937,0.4053,0.4125,0.4236,0.4171,0.4206,0.4177,0.3816,0.3756,0.3973,0.3956,0.4096,0.4093,0.409,0.4088,0.4086,0,0.2903,0.2914,0.2993,0.3015,0.3057,0.314,0.3193,0.3354,0.3444,0.3706,0.3766,0.3953,0.4018,0.4123,0.4074,0.4081,0.4173,0.3773,0.3643,0.4,0.3973,0.396,0.3947,0.3331,0.3323,0.3316,0.3311,0,0.2851,0.2882,0.2909,0.2952,0.3005,0.3068,0.3172,0.3227,0.3431,0.3543,0.3688,0.3773,0.3889,0.3738,0.3758,0.3715,0.3746,0.3638,0.4152,0.3394,0.3284,0.3255,0.3267,0.3253,0.3259,0.3263,0.3266,0.3269,0.2808,0.281,0.2846,0.288,0.2936,0.298,0.2974,0.308,0.3165,0.3288,0.3473,0.348,0.3522,0.3372,0.3266,0.3181,0.3431,0.3267,0.3286,0.3311,0.3191,0.3081,0.2988,0.2992,0.2996,0.2999,0.3002,0,0.2732,0.2748,0.2772,0.2793,0.2787,0.2872,0.2935,0.2882,0.2878,0.3027,0.3094,0.2872,0.2777,0.2827,0.2593,0.257,0.2532,0.2473,0.2396,0.2456,0.251,0.2346,0.192,0.1917,0.1913,0.191,0,0,0.2696,0.2671,0.2677,0.2633,0.2647,0.2593,0.2584,0.252,0.2555,0.2505,0.2488,0.2704,0.2768,0.2331,0.2256,0.2046,0.224,0.1967,0.2841,0.2813,0.2862,0.2979,0.2797,0,0,0,0,0]},{"header":{"parameterUnit":"m.s-1","parameterCategory":2,"la1":30.2991,"la2":30.254,"lo1":-89.0895,"lo2":-89.0444,"dy":0.0017,"dx":0.0017,"nx":28,"ny":28,"refTime":"2024-06-10T03:00:00:Z","depth":"2","parameterNumber":3,"parameterNumberName":"V-component_of_CURRENTS"},"data":[0,0,0,0,0,0,0,0,0,0,0,0,0,0,0,0,0,0,0,0,0,0,0,0,0,0,0,0,0,0,0,0,0,0,0,0,0,0,0,0,0,0,0,0,0,0,0,0,0,0,0,0,0,0,0,0,0,0,0.0189,0.0189,0,0.015,0.0149,0.0149,0.0122,0.0122,0.0122,0.0122,0.0074,0.0073,0.0071,0,0,0,0,0,0,0,0,0,0,0,0,0,0.02,0.02,0.0189,0.0189,0.0188,0.015,0.0149,0.0149,0.0122,0.0122,0.0122,0.0121,0.0074,0.0073,0.0071,0,0,0,0,0,0,0,0,0,0,0,0,0,0.018,0.02,0.0189,0.0171,0.0169,0.015,0.0149,0.0149,0.0122,0.0122,0.0122,0.0121,0.0075,0.0073,0.0071,0.0064,0,0,0.0066,0.0065,0,0,0,0,0,0,0,0,0.0182,0.018,0.0174,0.0172,0.017,0.0142,0.0136,0.012,0.0122,0.0139,0.0122,0.0121,0.0096,0.0093,0.0085,0.0061,0.0059,0.0066,0.0065,0.0064,0.0063,0,0,0,0,0,0,0,0.0183,0.0181,0.0172,0.0174,0.0171,0.0151,0.0148,0.0132,0.0118,0.0137,0.0135,0.0133,0.0095,0.0086,0.0083,0.0059,0.0066,0.0064,0.0063,0.0062,0.0034,0.0034,0,0,0,0,0,0,0.0192,0.0183,0.0174,0.0171,0.0177,0.0151,0.0148,0.015,0.0118,0.0114,0.0133,0.0132,0.0089,0.0085,0.0081,0.0096,0.0064,0.0062,0.0061,0.0034,0.0034,0.0035,0,0,0,0,0,0,0.0193,0.0192,0.0175,0.0177,0.0173,0.0152,0.0154,0.0149,0.0144,0.0115,0.011,0.0133,0.0089,0.0084,0.0076,0.0093,0.0061,0.006,0.0034,0.0034,0.0034,0.0108,0,0,0,0,0,0,0.0193,0.0193,0.0198,0.0178,0.0174,0.0173,0.0154,0.0149,0.0143,0.0141,0.0114,0.0109,0.0089,0.0079,0.0075,0.009,0.0058,0.0033,0.0034,0.0034,0.0105,0.0111,0.0116,0,0,0,0,0,0.0194,0.0204,0.0198,0.0197,0.0181,0.0173,0.0169,0.0152,0.0144,0.0146,0.0129,0.011,0.0079,0.0078,0.0073,0.0088,0.0033,0.0034,0.0034,0.0103,0.011,0.0116,0,0,0,0,0,0,0.0211,0.0202,0.0195,0.0202,0.0192,0.0169,0.0171,0.0158,0.0145,0.0145,0.0116,0.011,0.0108,0.0085,0.0085,0.0079,0.0052,0.0052,0.0106,0.0112,0.0117,0.0137,0.0057,0,0,0,0,0,0.0218,0.0225,0.0209,0.0216,0.0213,0.0193,0.0188,0.0177,0.0163,0.0157,0.0139,0.0119,0.0105,0.01,0.0081,0.0082,0.0062,0.0085,0.009,0.0095,0.0106,0.0097,0.0104,0.0037,0.0037,0.0037,0,0,0.0226,0.0223,0.0226,0.0221,0.0211,0.0219,0.019,0.0188,0.0197,0.0154,0.0162,0.0137,0.0108,0.0109,0.0106,0.0094,0.0102,0.0096,0.0101,0.0109,0.0099,0.0106,0.0112,0.0037,0.0037,0.0037,0,0,0.0251,0.0245,0.026,0.0257,0.025,0.024,0.0243,0.0226,0.0222,0.0222,0.0195,0.0184,0.0161,0.0148,0.0138,0.016,0.0129,0.0149,0.0196,0.0188,0.0194,0.0199,0.0177,0.018,0.0154,0.0154,0.0155,0,0.0262,0.028,0.0262,0.0277,0.0285,0.0255,0.0277,0.0267,0.0251,0.0257,0.0235,0.0213,0.0183,0.0192,0.0195,0.0175,0.0159,0.0178,0.0197,0.0202,0.0206,0.0182,0.0184,0.0158,0.0158,0.0157,0.0157,0,0.0298,0.0313,0.0323,0.0337,0.0341,0.0353,0.0342,0.0346,0.0335,0.0326,0.033,0.0289,0.0282,0.0263,0.0234,0.0249,0.0224,0.0205,0.0187,0.0217,0.019,0.019,0.0163,0.0162,0.0161,0.016,0,0,0.0329,0.0346,0.0352,0.0376,0.0376,0.039,0.0406,0.0421,0.045,0.0417,0.0452,0.0407,0.0386,0.0372,0.0334,0.0317,0.0318,0.0276,0.0274,0.0265,0.0293,0.0259,0.0256,0.0306,0.0306,0.0307,0.0261,0,0.0368,0.0414,0.0411,0.0463,0.0489,0.0477,0.0504,0.0511,0.0511,0.0535,0.049,0.0505,0.0428,0.0436,0.0404,0.0347,0.0324,0.0332,0.0256,0.0254,0.0228,0.0257,0.0261,0.022,0.0262,0.0262,0.0262,0,0.0412,0.0439,0.0496,0.0543,0.0556,0.0585,0.0637,0.0656,0.0669,0.0671,0.0664,0.0632,0.0607,0.0541,0.0453,0.0463,0.0386,0.0328,0.0324,0.027,0.0221,0.0196,0.0219,0.0262,0.0262,0.0262,0.0262,0,0.0461,0.0506,0.056,0.0574,0.0615,0.0651,0.0679,0.0704,0.0752,0.077,0.0813,0.0753,0.0757,0.0649,0.0513,0.0494,0.0412,0.0372,0.0264,0.026,0.0238,0.0231,0.0314,0.0314,0.0314,0.0314,0.0315,0,0.0511,0.0555,0.0592,0.0625,0.0705,0.0715,0.0809,0.0822,0.088,0.097,0.0897,0.0949,0.0787,0.0716,0.0565,0.0419,0.0452,0.0281,0.0253,0.0261,0.0257,0.0271,0.0267,0.0313,0.0313,0.0313,0.0314,0,0.0558,0.0577,0.0646,0.0706,0.0732,0.0795,0.0901,0.0978,0.1011,0.1131,0.1152,0.1111,0.1019,0.0835,0.0667,0.051,0.0359,0.0295,0.0304,0.0278,0.0195,0.0195,0.0179,0.0177,0.0176,0.0175,0.0174,0,0.0586,0.0626,0.071,0.0766,0.08,0.0895,0.0977,0.1039,0.1141,0.1241,0.132,0.1261,0.124,0.0953,0.0671,0.0406,0.0366,0.0225,0.0183,0.021,0.0185,0.0187,0.0188,0.0176,0.0175,0.0174,0.0174,0,0.0641,0.0673,0.0732,0.0844,0.094,0.1058,0.1186,0.1282,0.1391,0.1481,0.158,0.1563,0.1306,0.103,0.0653,0.0461,0.0262,0.0203,0.0251,0.0208,0.0204,0.018,0.0182,0.0168,0.0169,0.0169,0.017,0.017,0.0689,0.0739,0.0823,0.0934,0.1053,0.1219,0.1332,0.1475,0.1634,0.1782,0.1756,0.1725,0.1418,0.0928,0.0598,0.0234,0.0255,0.011,0.0114,0.0118,0.0125,0.0119,0.0068,0.0068,0.0068,0.0068,0.0068,0,0.0743,0.0805,0.0909,0.1054,0.12,0.1257,0.1475,0.1588,0.1774,0.1883,0.194,0.1637,0.1326,0.0964,0.0434,0.0126,0.0097,0.001,0.0046,0.0053,0.006,0.0064,-0.001,-0.0011,-0.0012,-0.0013,0,0,0.0773,0.0872,0.0924,0.1153,0.1271,0.1481,0.1611,0.1757,0.1868,0.1953,0.1933,0.1876,0.1439,0.1045,0.0617,0.0308,0.0251,0.0235,0.0327,0.0428,0.0438,0.0142,0.0161,0,0,0,0,0]}],[{"header":{"parameterUnit":"m.s-1","parameterCategory":2,"la1":30.2991,"la2":30.254,"lo1":-89.0895,"lo2":-89.0444,"dy":0.0017,"dx":0.0017,"nx":28,"ny":28,"refTime":"2024-06-10T03:00:00:Z","depth":"4","parameterNumber":2,"parameterNumberName":"U-component_of_CURRENTS"},"data":[0,0,0,0,0,0,0,0,0,0,0,0,0,0,0,0,0,0,0,0,0,0,0,0,0,0,0,0,0,0,0,0,0,0,0,0,0,0,0,0,0,0,0,0,0,0,0,0,0,0,0,0,0,0,0,0,0,0,0.197,0.1971,0,0.2012,0.2012,0.2012,0.2064,0.2065,0.2066,0.2067,0.2131,0.2132,0.2133,0,0,0,0,0,0,0,0,0,0,0,0,0,0.1918,0.1919,0.197,0.1971,0.1971,0.2012,0.2012,0.2012,0.2064,0.2065,0.2066,0.2067,0.2131,0.2132,0.2133,0,0,0,0,0,0,0,0,0,0,0,0,0,0.1946,0.1919,0.197,0.2004,0.2007,0.2012,0.2012,0.2012,0.2063,0.2065,0.2066,0.2068,0.2131,0.2132,0.2133,0.2109,0,0,0.2136,0.2137,0,0,0,0,0,0,0,0,0.1945,0.1948,0.1998,0.2001,0.2005,0.2036,0.2018,0.2047,0.2063,0.2039,0.2067,0.2069,0.2102,0.2106,0.2106,0.2112,0.2115,0.2137,0.2137,0.2138,0.2138,0,0,0,0,0,0,0,0.1943,0.1946,0.1984,0.1999,0.2003,0.2011,0.2017,0.2023,0.206,0.2042,0.2046,0.2054,0.2104,0.2105,0.2108,0.2116,0.2136,0.2137,0.2138,0.2139,0.2236,0.2238,0,0,0,0,0,0,0.1941,0.1944,0.1983,0.1986,0.1981,0.2011,0.2017,0.2023,0.206,0.2067,0.2053,0.2056,0.2102,0.2107,0.2111,0.2199,0.2138,0.2139,0.2139,0.2235,0.2237,0.2239,0,0,0,0,0,0,0.194,0.1944,0.1981,0.1968,0.1974,0.2011,0.2016,0.2023,0.2068,0.2068,0.2076,0.2097,0.2104,0.2109,0.2158,0.2198,0.2139,0.214,0.2232,0.2235,0.2238,0.2302,0,0,0,0,0,0,0.1938,0.1943,0.1968,0.1968,0.1975,0.2012,0.2015,0.2023,0.2069,0.2075,0.2107,0.2113,0.2105,0.2157,0.2159,0.2198,0.2141,0.223,0.2234,0.2237,0.2297,0.2306,0.2314,0,0,0,0,0,0.1936,0.1955,0.1969,0.1975,0.2,0.2013,0.2018,0.2047,0.207,0.2093,0.2122,0.2114,0.2182,0.2159,0.2162,0.2202,0.2228,0.2233,0.2237,0.2293,0.2305,0.2314,0,0,0,0,0,0,0.1947,0.1962,0.1977,0.2002,0.2022,0.2024,0.2055,0.2071,0.211,0.2132,0.2133,0.2139,0.2202,0.2192,0.2167,0.2242,0.2206,0.2211,0.2248,0.2258,0.2267,0.228,0.2142,0,0,0,0,0,0.1959,0.1982,0.1993,0.202,0.2033,0.2053,0.2072,0.2091,0.2114,0.2135,0.2159,0.2186,0.2213,0.223,0.2251,0.2282,0.2295,0.2313,0.2321,0.2329,0.2343,0.2393,0.2407,0.2253,0.2253,0.2253,0,0,0.1972,0.1985,0.2001,0.2025,0.2046,0.2066,0.2069,0.211,0.214,0.2134,0.2201,0.2225,0.2232,0.2277,0.2303,0.2277,0.2381,0.2334,0.234,0.2351,0.2399,0.2414,0.2427,0.2256,0.2255,0.2255,0,0,0.199,0.2022,0.2042,0.2062,0.21,0.2108,0.213,0.2159,0.2194,0.2244,0.2258,0.2307,0.2341,0.2355,0.2362,0.243,0.2433,0.2444,0.2489,0.2537,0.255,0.2562,0.2604,0.2618,0.2439,0.2439,0.2439,0,0.2011,0.203,0.2053,0.2075,0.2098,0.2132,0.2156,0.2188,0.2236,0.2266,0.2282,0.2363,0.2375,0.2422,0.2454,0.245,0.248,0.2446,0.2549,0.256,0.2571,0.2611,0.2626,0.2442,0.2442,0.2442,0.2441,0,0.2026,0.206,0.2077,0.2114,0.2142,0.2174,0.2211,0.2263,0.2311,0.2336,0.2421,0.2447,0.2491,0.2507,0.2504,0.2586,0.2585,0.256,0.252,0.259,0.2628,0.2643,0.2447,0.2446,0.2445,0.2444,0,0,0.2015,0.2076,0.2086,0.2108,0.2169,0.2182,0.2253,0.2305,0.2354,0.2423,0.2485,0.2549,0.258,0.2593,0.2604,0.2649,0.2754,0.2649,0.265,0.2687,0.2875,0.2667,0.2663,0.2755,0.2758,0.2761,0.2873,0,0.2024,0.2064,0.2097,0.2144,0.2164,0.2224,0.2277,0.2338,0.2402,0.2473,0.253,0.2597,0.2604,0.2644,0.2695,0.2747,0.2797,0.2727,0.2805,0.2807,0.261,0.2674,0.277,0.2884,0.2887,0.289,0.2891,0,0.2015,0.2045,0.2094,0.2151,0.2168,0.2212,0.2302,0.2355,0.246,0.2518,0.2603,0.2648,0.2747,0.2735,0.2868,0.2831,0.2869,0.2898,0.2902,0.2695,0.2625,0.2798,0.2918,0.2916,0.2914,0.2912,0.2911,0,0.1966,0.2033,0.2073,0.2096,0.2174,0.2225,0.2279,0.2379,0.2432,0.2564,0.2627,0.2729,0.2815,0.288,0.2956,0.2932,0.3088,0.3045,0.2892,0.2879,0.3005,0.2991,0.3135,0.3135,0.3134,0.3134,0.3134,0,0.1932,0.1965,0.2063,0.2081,0.2131,0.2206,0.2279,0.2355,0.2472,0.2537,0.2656,0.2728,0.2867,0.2959,0.2994,0.2991,0.3121,0.2915,0.2893,0.303,0.3017,0.3016,0.3,0.3138,0.3137,0.3137,0.3136,0,0.186,0.193,0.1974,0.2075,0.2109,0.215,0.2266,0.231,0.2454,0.2551,0.2604,0.2777,0.2896,0.2989,0.3112,0.3028,0.3044,0.3009,0.3171,0.3155,0.2795,0.2782,0.2836,0.2829,0.2824,0.2819,0.2815,0,0.1821,0.1845,0.1954,0.1976,0.2029,0.2105,0.2149,0.2288,0.2337,0.2555,0.2585,0.2766,0.2858,0.2869,0.2982,0.3011,0.2976,0.2955,0.2848,0.2791,0.2766,0.2762,0.2756,0.2807,0.2805,0.2804,0.2802,0,0.1742,0.1808,0.1846,0.1893,0.1946,0.1982,0.2066,0.2085,0.2253,0.2413,0.2499,0.2557,0.2685,0.2757,0.2803,0.2818,0.2942,0.2897,0.2907,0.2807,0.2757,0.2736,0.2737,0.2783,0.2786,0.2788,0.2789,0,0.1693,0.1698,0.1759,0.1779,0.1835,0.1831,0.1892,0.195,0.2021,0.2256,0.2293,0.2489,0.267,0.2661,0.2706,0.2695,0.2643,0.2532,0.256,0.2582,0.2441,0.2335,0.2225,0,0,0,0,0,0.1625,0.161,0.1625,0.163,0.1678,0.1711,0.1813,0.1885,0.2058,0.2054,0.2159,0.226,0.2334,0.2441,0.2378,0.2583,0.2647,0.2494,0.2532,0.2679,0.2701,0.2554,0,0,0,0,0,0,0.1574,0.1596,0.1582,0.15,0.148,0.1514,0.1578,0.17,0.1698,0.1897,0.1956,0.2106,0.222,0.2353,0.2335,0.236,0.2329,0.2614,0.2606,0.2666,0.2686,0.2704,0.2561,0,0,0,0,0]},{"header":{"parameterUnit":"m.s-1","parameterCategory":2,"la1":30.2991,"la2":30.254,"lo1":-89.0895,"lo2":-89.0444,"dy":0.0017,"dx":0.0017,"nx":28,"ny":28,"refTime":"2024-06-10T03:00:00:Z","depth":"4","parameterNumber":3,"parameterNumberName":"V-component_of_CURRENTS"},"data":[0,0,0,0,0,0,0,0,0,0,0,0,0,0,0,0,0,0,0,0,0,0,0,0,0,0,0,0,0,0,0,0,0,0,0,0,0,0,0,0,0,0,0,0,0,0,0,0,0,0,0,0,0,0,0,0,0,0,0.0136,0.0136,0,0.0113,0.0113,0.0112,0.0097,0.0097,0.0097,0.0097,0.0068,0.0067,0.0067,0,0,0,0,0,0,0,0,0,0,0,0,0,0.014,0.014,0.0136,0.0136,0.0136,0.0113,0.0112,0.0112,0.0097,0.0097,0.0097,0.0097,0.0068,0.0068,0.0067,0,0,0,0,0,0,0,0,0,0,0,0,0,0.0129,0.014,0.0136,0.0126,0.0125,0.0113,0.0112,0.0112,0.0097,0.0097,0.0097,0.0097,0.0069,0.0068,0.0066,0.006,0,0,0.0063,0.0063,0,0,0,0,0,0,0,0,0.013,0.0129,0.0128,0.0127,0.0125,0.0109,0.0103,0.0095,0.0097,0.0107,0.0097,0.0097,0.0082,0.0079,0.0074,0.0059,0.0058,0.0063,0.0062,0.0062,0.0061,0,0,0,0,0,0,0,0.0131,0.013,0.0126,0.0128,0.0126,0.0113,0.0112,0.0101,0.0094,0.0106,0.0105,0.0104,0.0081,0.0075,0.0073,0.0057,0.0063,0.0062,0.0061,0.0061,0.0047,0.0047,0,0,0,0,0,0,0.0136,0.0131,0.0127,0.0126,0.0128,0.0113,0.0112,0.0113,0.0094,0.0092,0.0104,0.0103,0.0077,0.0075,0.0072,0.0088,0.0062,0.0061,0.006,0.0046,0.0047,0.0047,0,0,0,0,0,0,0.0137,0.0136,0.0128,0.0128,0.0126,0.0114,0.0115,0.0113,0.0112,0.0093,0.009,0.0106,0.0077,0.0074,0.0071,0.0086,0.006,0.0059,0.0046,0.0046,0.0047,0.0104,0,0,0,0,0,0,0.0137,0.0137,0.0142,0.0128,0.0126,0.0128,0.0116,0.0113,0.0111,0.011,0.0093,0.009,0.0077,0.0073,0.007,0.0084,0.0058,0.0045,0.0046,0.0047,0.0102,0.0106,0.011,0,0,0,0,0,0.0137,0.0145,0.0142,0.0142,0.0133,0.0128,0.0126,0.0116,0.0111,0.0114,0.0105,0.0091,0.0075,0.0073,0.0069,0.0083,0.0045,0.0046,0.0047,0.01,0.0105,0.011,0,0,0,0,0,0,0.0149,0.0144,0.014,0.0146,0.0141,0.0126,0.0128,0.012,0.0114,0.0116,0.0096,0.0093,0.0094,0.0079,0.0077,0.0079,0.0057,0.0057,0.0099,0.0104,0.0108,0.0121,0.0057,0,0,0,0,0,0.0154,0.0161,0.015,0.0157,0.0155,0.0143,0.014,0.0134,0.0126,0.0123,0.0113,0.0101,0.0093,0.0091,0.0079,0.0083,0.0061,0.0087,0.0092,0.0095,0.0103,0.0086,0.0089,0.0049,0.0049,0.0049,0,0,0.016,0.0159,0.0162,0.016,0.0155,0.0163,0.0141,0.0142,0.0152,0.0121,0.0132,0.0115,0.0096,0.01,0.01,0.0091,0.0093,0.0096,0.01,0.0105,0.0087,0.0091,0.0094,0.005,0.0049,0.0049,0,0,0.0178,0.0175,0.0187,0.0187,0.0184,0.0179,0.0182,0.0172,0.0172,0.0176,0.0157,0.0152,0.0139,0.0133,0.0127,0.0146,0.0115,0.0138,0.0176,0.0159,0.0162,0.0165,0.0136,0.0136,0.0144,0.0144,0.0144,0,0.0186,0.0202,0.0189,0.0202,0.0211,0.0191,0.021,0.0204,0.0196,0.0204,0.0188,0.0177,0.0158,0.0168,0.0173,0.0158,0.0136,0.0161,0.0166,0.0168,0.017,0.014,0.0139,0.0147,0.0146,0.0146,0.0146,0,0.0212,0.0227,0.0235,0.0248,0.0255,0.0266,0.0262,0.0268,0.0264,0.026,0.0266,0.0238,0.0236,0.0224,0.0204,0.0211,0.0186,0.0172,0.0156,0.0178,0.0144,0.0142,0.0151,0.015,0.0149,0.0148,0,0,0.0231,0.025,0.0256,0.0278,0.0284,0.0296,0.0314,0.0331,0.0355,0.0334,0.0361,0.0335,0.0318,0.0309,0.0281,0.0261,0.0248,0.0225,0.0223,0.0203,0.0201,0.0176,0.0171,0.0234,0.0234,0.0234,0.0169,0,0.0259,0.0298,0.0301,0.0347,0.0369,0.0367,0.0393,0.0405,0.0406,0.0423,0.0392,0.0402,0.0352,0.0355,0.0327,0.027,0.0247,0.0267,0.0177,0.0175,0.0156,0.017,0.0235,0.0168,0.0167,0.0167,0.0167,0,0.029,0.0315,0.0364,0.0412,0.0423,0.0451,0.05,0.052,0.053,0.0532,0.0526,0.0496,0.047,0.0423,0.0337,0.0351,0.0284,0.0231,0.0227,0.0185,0.0147,0.0142,0.0162,0.0163,0.0163,0.0163,0.0164,0,0.0321,0.0365,0.0412,0.0426,0.047,0.0504,0.0534,0.0559,0.0598,0.0605,0.0628,0.0579,0.057,0.0478,0.036,0.0352,0.0254,0.0231,0.0145,0.0141,0.0157,0.0155,0.0175,0.0175,0.0175,0.0175,0.0176,0,0.0354,0.0393,0.0436,0.0464,0.0536,0.0554,0.0635,0.0649,0.0692,0.0748,0.0692,0.0709,0.0584,0.0509,0.0389,0.0259,0.0277,0.0154,0.0128,0.018,0.0182,0.0155,0.0153,0.0173,0.0173,0.0174,0.0174,0,0.0379,0.0403,0.0464,0.0526,0.0554,0.061,0.0706,0.0767,0.079,0.0858,0.0867,0.0815,0.0716,0.0573,0.0422,0.031,0.0179,0.0128,0.0191,0.0169,0.0067,0.0069,0.003,0.0029,0.0027,0.0027,0.0026,0,0.0394,0.0428,0.0513,0.0561,0.0596,0.0684,0.0756,0.0813,0.0879,0.0921,0.0957,0.0886,0.0828,0.0598,0.0432,0.0202,0.0164,0.0086,0.0076,0.0077,0.0055,0.0059,0.0062,0.0024,0.0024,0.0024,0.0023,0,0.0424,0.0457,0.051,0.0608,0.0693,0.0794,0.0894,0.0945,0.1017,0.1038,0.1036,0.0918,0.0804,0.0608,0.0429,0.0261,0.0129,0.0074,0.0075,0.0065,0.0069,0.0049,0.0054,0.0019,0.002,0.002,0.0021,0,0.0452,0.049,0.0564,0.0653,0.0763,0.0872,0.0923,0.1003,0.1065,0.11,0.1094,0.0965,0.0894,0.0639,0.0473,0.0305,0.0255,0.0184,0.0178,0.018,0.0233,0.026,0.0254,0,0,0,0,0,0.0474,0.052,0.0603,0.0708,0.082,0.0888,0.1006,0.1051,0.1111,0.1121,0.1112,0.1003,0.0765,0.066,0.049,0.0435,0.0213,0.0225,0.0125,-0.0001,0.0003,0.0036,0,0,0,0,0,0,0.0487,0.0562,0.0601,0.0742,0.0822,0.0958,0.1036,0.1078,0.1082,0.1103,0.0983,0.0938,0.0708,0.0864,0.048,0.043,0.0336,0.0122,0.0117,-0.0004,0.0,0.0004,0.0039,0,0,0,0,0]}]]